This demonstration page uses our WeatherBlox Daily Observations layout. Learn more.

Left ArrowRight Arrow

Hourly Observations for July 15, 2016

Temp ( °F °C ) Dew Point ( °F °C ) Humidity (%) Winds ( mph kmh ) Pressure ( in mb ) Visibility ( mi km ) Precip ( " mm )
12:53 am 00:53 Clear 69 20.6 67 19.4 93 93 N N/A 29.97 1015 9 14 N/A
1:53 am 01:53 Clear 71 21.7 69 20.6 94 94 N N/A 29.96 1015 7 11 N/A
2:02 am 02:02 Mostly Clear with Mist and Fog 70 21.1 68 20 93 93 N N/A 29.97 1015 5 8 N/A
2:48 am 02:48 Mostly Cloudy with Mist and Fog 72 22 70 21 94 94 N N/A 30.00 1016 6 10 N/A
2:53 am 02:53 Mostly Cloudy with Mist and Fog 71 21.7 69 20.6 94 94 N N/A 29.97 1015 5 8 N/A
3:07 am 03:07 Cloudy with Mist and Fog 71 21.7 69 20.6 94 94 N N/A 29.97 1015 5 8 N/A
3:20 am 03:20 Cloudy with Mist and Fog 71 21.7 70 21.1 96 96 N N/A 29.97 1015 6 10 N/A
3:36 am 03:36 Cloudy with Mist and Fog 72 22.2 70 21.1 94 94 N N/A 29.97 1015 6 10 N/A
3:53 am 03:53 Cloudy with Mist and Fog 73 22.8 72 22.2 96 96 WSW 7 11 29.96 1015 4 6 N/A
4:44 am 04:44 Cloudy with Mist and Fog 73 22.8 71 21.7 94 94 VRB 5 7 29.97 1015 5 8 N/A
4:53 am 04:53 Cloudy with Mist and Fog 73 22.8 71 21.7 94 94 WSW 5 7 29.96 1015 5 8 N/A
5:53 am 05:53 Cloudy with Mist and Fog 73 22.8 70 21.1 90 90 SW 5 7 29.97 1015 6 10 N/A
6:53 am 06:53 Cloudy with Mist and Fog 73 22.8 71 21.7 94 94 SW 3 6 29.98 1015 4 6 N/A
7:46 am 07:46 Mostly Cloudy with Mist and Fog 74 23.3 71 21.7 91 91 SW 3 6 30.00 1016 5 8 N/A
7:53 am 07:53 Cloudy with Mist and Fog 74 23.3 71 21.7 91 91 SW 3 6 30.00 1016 5 8 N/A
8:53 am 08:53 Mostly Cloudy 76 24.4 71 21.7 85 85 WSW 7 11 30.01 1016 7 11 N/A
9:47 am 09:47 Partly Cloudy 77 25 72 22 83 83 SW 7 11 30.03 1017 9 14 N/A
9:53 am 09:53 Partly Cloudy 77 25 71 21.7 82 82 WSW 7 11 30.01 1016 10 16 N/A
10:53 am 10:53 Mostly Sunny 82 27.8 70 21.1 67 67 undefined N/A 30.01 1016 10 16 N/A
11:40 am 11:40 Mostly Cloudy 81 27.2 70 21.1 69 69 W 6 9 30.00 1016 10 16 N/A
11:53 am 11:53 Mostly Cloudy 83 28.3 70 21.1 65 65 WSW 6 9 30.01 1016 10 16 N/A
12:53 pm 12:53 Partly Cloudy 85 29.4 69 20.6 59 59 N N/A 30.00 1016 10 16 N/A
1:53 pm 13:53 Partly Cloudy 86 30 67 19.4 53 53 W 7 11 29.99 1016 10 16 N/A
2:53 pm 14:53 Partly Cloudy 85 29.4 67 19.4 55 55 W 8 13 29.98 1015 10 16 N/A
3:41 pm 15:41 Mostly Cloudy with Nearby Thunderstorms 85 29.4 67 19.4 55 55 WNW 9 15 29.97 1015 10 16 N/A
3:53 pm 15:53 Partly Cloudy with Nearby Thunderstorms 87 30.6 67 19.4 51 51 WNW 13 20 29.97 1015 10 16 N/A
4:39 pm 16:39 Mostly Cloudy with Thunderstorms 86 30 65 18.3 49 49 WSW 8 13 29.97 1015 10 16 N/A
4:53 pm 16:53 Partly Cloudy with Thunderstorms 83 28.3 68 20 61 61 SSW 8 13 29.96 1015 10 16 N/A
5:02 pm 17:02 Partly Cloudy 84 28.9 69 20.6 61 61 SSW 10 17 29.94 1014 10 16 N/A
5:53 pm 17:53 Mostly Sunny 84 28.9 67 19.4 57 57 W 6 9 29.96 1014 10 16 N/A
6:53 pm 18:53 Sunny 86 30 62 16.7 45 45 W 8 13 29.96 1014 10 16 N/A
7:53 pm 19:53 Sunny 84 28.9 62 16.7 48 48 WNW 10 17 29.96 1015 10 16 N/A
8:53 pm 20:53 Sunny 81 27.2 63 17.2 54 54 W 6 9 29.97 1015 10 16 N/A
9:53 pm 21:53 Clear 73 22.8 65 18.3 76 76 WSW 3 6 30.00 1016 10 16 N/A
10:53 pm 22:53 Clear 70 21.1 65 18.3 84 84 N N/A 30.01 1016 10 16 N/A
11:53 pm 23:53 Partly Cloudy 69 20.6 65 18.3 87 87 N N/A 30.04 1017 10 16 N/A

Powered by AerisWeather